K5AGY Weather Reports


time (UTC)temp
C
wind
direction
speed
KPH
gust
KPH
rain 1hr
cm
rain 24hr
cm
rain mn
cm
humidity
%
barometer
mb
20260506140025 24 111 6.4 14.5 0.00 0.00 0.00 83 1008.3
20260506134559 24 128 6.4 12.9 0.00 0.00 0.00 83 1008.4
20260506133037 24 84 6.4 11.3 0.00 0.00 0.00 84 1008.4
20260506131512 23 81 4.8 11.3 0.00 0.00 0.00 85 1008.4
20260506130058 23 105 3.2 8.0 0.00 0.00 0.00 86 1008.4
20260506124526 23 109 3.2 8.0 0.00 0.00 0.00 86 1008.3
20260506123003 23 104 1.6 4.8 0.00 0.00 0.00 86 1008.2
20260506121548 23 111 1.6 4.8 0.00 0.00 0.00 86 1008.2
20260506120025 23 103 0.0 3.2 0.00 0.00 0.00 86 1008.1
20260506114556 23 135 0.0 4.8 0.00 0.00 0.00 85 1008.0
20260506113035 23 132 1.6 11.3 0.00 0.00 0.00 85 1007.9
20260506111510 23 123 6.4 11.3 0.00 0.00 0.00 85 1007.7
20260506110047 23 118 3.2 6.4 0.00 0.00 0.00 85 1007.8
20260506104523 23 122 0.0 8.0 0.00 0.00 0.00 85 1007.7
20260506103129 23 143 1.6 9.7 0.00 0.00 0.00 86 1007.6
20260506101538 23 175 0.0 4.8 0.00 0.00 0.00 85 1007.5
20260506100013 23 152 1.6 6.4 0.00 0.00 0.00 85 1007.5
20260506094552 22 174 1.6 6.4 0.00 0.00 0.00 85 1007.4
20260506093025 22 162 0.0 6.4 0.00 0.00 0.00 85 1007.5
20260506091502 23 167 1.6 6.4 0.00 0.00 0.00 85 1007.5
20260506090047 23 144 3.2 6.4 0.00 0.00 0.00 85 1007.4
20260506084517 23 184 1.6 4.8 0.00 0.00 0.00 85 1007.3
20260506083054 23 153 1.6 9.7 0.00 0.00 0.00 85 1007.3
20260506081531 23 162 1.6 6.4 0.00 0.00 0.00 84 1007.1
20260506073001 23 180 1.6 9.7 0.00 0.00 0.00 83 1007.8
20260506071530 23 106 4.8 12.9 0.00 0.00 0.00 83 1008.0
20260506061558 23 117 6.4 16.1 0.00 0.00 0.00 83 1008.1
20260506044555 24 169 6.4 14.5 0.00 0.00 0.00 81 1008.3
20260506043039 24 153 6.4 11.3 0.00 0.00 0.00 81 1008.3
20260506041509 24 115 4.8 12.9 0.00 0.00 0.00 81 1008.1
20260506040047 24 129 4.8 9.7 0.00 0.00 0.00 81 1008.2
20260506034527 24 121 4.8 11.3 0.00 0.00 0.00 81 1008.2
20260506033100 24 140 8.0 14.5 0.00 0.00 0.00 81 1007.9
20260506031546 24 140 6.4 11.3 0.00 0.00 0.00 80 1007.7
20260506030018 24 123 3.2 12.9 0.00 0.00 0.00 80 1007.6
20260506024558 25 95 4.8 12.9 0.00 0.00 0.00 80 1007.1
20260506023030 25 118 6.4 9.7 0.00 0.00 0.00 79 1007.0
20260506021508 25 118 3.2 11.3 0.00 0.00 0.00 79 1006.8
20260506020046 25 113 4.8 11.3 0.00 0.00 0.00 78 1006.6
20260506014525 25 118 3.2 14.5 0.00 0.00 0.00 78 1006.5
20260506013107 25 124 4.8 16.1 0.00 0.00 0.00 76 1006.1
20260506011539 26 129 8.0 19.3 0.00 0.00 0.00 75 1005.9
20260506010013 26 127 8.0 20.9 0.00 0.00 0.00 74 1005.7
20260506004551 26 144 8.0 19.3 0.00 0.00 0.00 73 1005.6
20260506003027 26 151 9.7 19.3 0.00 0.00 0.00 72 1005.5
20260506001504 27 121 6.4 12.9 0.00 0.00 0.00 72 1005.5
20260506000042 27 135 6.4 16.1 0.00 0.00 0.00 71 1005.2
20260505234504 27 108 11.3 24.1 0.00 0.00 0.00 70 1005.1
20260505233038 27 125 11.3 24.1 0.00 0.00 0.00 69 1005.0
20260505231510 28 124 11.3 25.7 0.00 0.00 0.00 69 1005.0
20260505230052 28 104 8.0 22.5 0.00 0.00 0.00 67 1004.9
20260505224523 29 130 11.3 22.5 0.00 0.00 0.00 65 1005.0
20260505223106 29 120 11.3 22.5 0.00 0.00 0.00 65 1004.9
20260505221531 30 167 8.0 19.3 0.00 0.00 0.00 64 1005.1
20260505220001 30 122 11.3 20.9 0.00 0.00 0.00 64 1005.4
20260505214600 30 143 9.7 19.3 0.00 0.00 0.00 63 1005.4
20260505213009 30 143 9.7 20.9 0.00 0.00 0.00 63 1005.6
20260505211540 30 124 8.0 19.3 0.00 0.00 0.00 62 1005.8
20260505210010 30 116 9.7 24.1 0.00 0.00 0.00 62 1006.1
20260505204541 30 194 9.7 17.7 0.00 0.00 0.00 63 1006.4
20260505203008 30 203 11.3 20.9 0.00 0.00 0.00 64 1006.7
20260505201538 29 131 8.0 17.7 0.00 0.00 0.00 66 1006.8
20260505200006 29 185 9.7 20.9 0.00 0.00 0.00 64 1007.1
20260505194533 28 197 8.0 17.7 0.00 0.00 0.00 66 1007.2
20260505193058 28 196 6.4 14.5 0.00 0.00 0.00 68 1007.6
20260505191523 28 161 3.2 9.7 0.00 0.00 0.00 69 1007.7
20260505190051 27 186 4.8 11.3 0.00 0.00 0.00 71 1008.1
20260505184520 27 189 8.0 14.5 0.00 0.00 0.00 71 1008.1
20260505183102 26 153 4.8 16.1 0.00 0.00 0.00 73 1008.3
20260505181519 26 188 6.4 12.9 0.00 0.00 0.00 73 1008.4
20260505180055 26 151 9.7 16.1 0.00 0.00 0.00 74 1008.4
20260505174519 25 150 4.8 14.5 0.00 0.00 0.00 76 1008.5
20260505173053 25 210 6.4 16.1 0.00 0.00 0.00 76 1008.7
20260505171525 25 197 4.8 11.3 0.00 0.00 0.00 77 1008.6
20260505170057 25 184 4.8 11.3 0.00 0.00 0.00 78 1008.7
20260505164528 24 191 4.8 11.3 0.00 0.00 0.00 79 1008.9
20260505163009 24 212 6.4 12.9 0.00 0.00 0.00 80 1008.9
20260505161536 23 211 6.4 9.7 0.00 0.00 0.00 80 1009.0
20260505153017 23 208 6.4 14.5 0.00 0.00 0.00 82 1008.8
20260505151604 23 195 11.3 19.3 0.00 0.00 0.00 81 1008.8